Regional Weather Roundup
Issued by NWS Huntsville, AL

Home | Current Version | Previous Version | Text Only | Print | Product List | Glossary On
Versions: 1 2 3 4 5 6 7 8 9 10 11 12 13 14 15 16 17 18 19 20 21 22 23 24 25 26 27
000
ASUS44 KHUN 121510
RWRHUN

WEATHER ROUNDUP FOR THE TENNESSEE VALLEY
NATIONAL WEATHER SERVICE HUNTSVILLE AL
900 AM CST TUE DEC 12 2017

ALZ001>004-121600-
NORTHWEST ALABAMA

CITY           SKY/WX    TMP DP  RH WIND       PRES   REMARKS
COURTLAND HCN    N/A     46 N/A N/A NW8         N/A
RUSSELLVILLE     N/A     45 N/A N/A MISG        N/A
SHOALS AIRPORT CLOUDY    47  32  56 NW14      30.09R
SHOALS TVA RES   N/A     46 N/A N/A MISG        N/A
$$

ALZ005>007-016-121600-
NORTH CENTRAL ALABAMA

CITY           SKY/WX    TMP DP  RH WIND       PRES   REMARKS
CULLMAN AG STN   N/A     45 N/A N/A NW7         N/A
DECATUR AP     CLOUDY    46  33  60 NW24G33   30.06R
HUNTSVILLE AP  CLOUDY    47  35  63 NW12      30.04R
MERIDIANVILLE  CLOUDY    45  32  61 N12       30.02R
REDSTONE ARSN  CLOUDY    46  33  61 N16       30.02R
VINEMONT AP    CLOUDY    45  31  59 NW9       30.05R
$$

ALZ008>010-121600-
NORTHEAST ALABAMA

CITY           SKY/WX    TMP DP  RH WIND       PRES   REMARKS
ALBERTVILLE    CLOUDY    45  36  70 NW14      30.00R
FORT PAYNE     CLOUDY    43  30  61 N13G21    29.98R
SCOTTSBORO HCN   N/A     45 N/A N/A MISG        N/A
VALLEY HEAD      N/A     43 N/A N/A MISG        N/A
$$

TNZ076-096-097-121600-
SOUTHEASTERN MIDDLE TENNESSEE

CITY           SKY/WX    TMP DP  RH WIND       PRES   REMARKS
TULLAHOMA      CLOUDY    39  34  81 NW10G18   30.02R WCI  32
$$

...SURROUNDING SITES...

CITY           SKY/WX    TMP DP  RH WIND       PRES   REMARKS
ATLANTA        MOSUNNY   48  35  60 NW15      29.91R
ANNISTON       SUNNY     47  31  53 W13G18    30.02R
BIRMINGHAM     MOSUNNY   46  31  55 NW10      30.08R
CHATTANOOGA    CLOUDY    45  31  58 N14       29.97R
CORINTH        FAIR      46  32  57 NW18G28   30.13R
DALTON         CLOUDY    45  32  61 N12G18    29.97R
GADSDEN        CLOUDY    47  34  60 W14       30.03R
GOLDEN TRNGL   SUNNY     49  33  54 NW12      30.14R
HALEYVILLE     PTSUNNY   44  34  67 NW12G22   30.08R
JACKSON TN     MOSUNNY   45  30  55 N20G25    30.16R
MEMPHIS        SUNNY     45  30  55 N15G29    30.19R
NASHVILLE      CLOUDY    41  30  65 NW16G25   30.06R
OXFORD MS      FAIR      46  32  57 NW16G23   30.18R
ROME           CLOUDY    49  35  58 N13G22    29.97R
SAVANNAH       CLOUDY    45  28  53 N17G24    30.11R
SELMER         PTSUNNY   45  30  57 N13G23    30.11R
TUPELO         CLOUDY    47  32  56 NW13      30.14R
TUSCALOOSA     SUNNY     50  35  56 NW14      30.11R
$$

...GULF COAST WEATHER...

CITY           SKY/WX    TMP DP  RH WIND       PRES   REMARKS
GULFPORT       SUNNY     54  37  52 N15       30.15R
PASCAGOULA     SUNNY     55  36  48 NW10G17   30.14R
MOBILE         MOSUNNY   53  37  54 NW9       30.14R
GULF SHORES    SUNNY     54  37  51 NW13G18   30.10R
PENSACOLA      SUNNY     55  39  54 NW14G25   30.08R
DESTIN         SUNNY     58  37  45 N16       30.05R
PANAMA CITY    SUNNY     60  41  49 NW16      30.02R
APPALACHICOLA  SUNNY     66  49  54 W17G25    30.00R
$$





USA.gov is the U.S. government's official web portal to all federal, state and local government web resources and services.